sat.trackr.live / text

‹ back to catalog

STARLINK-36417

NORAD 67533 · 2026-014B

PAYLOAD ACTIVE UNKNOWN

§ Identity

Operator
Country
US
Launch date
2026-01-22
Launch site
AFWTR
Launch vehicle
Mass (kg)
RCS (m²)

Purposes: comms

External: N2YO · Heavens-Above · Gunter

§ Orbital elements

Epoch: 2026-09-18T22:14:12.544512Z

Period
93.91 min
Inclination
97.2854°
Eccentricity
0.0001938
Mean motion
15.33451488 rev/d
Perigee alt
464.2 km
Apogee alt
466.9 km
Semi-major
6,843.7 km
B*
3.7655e-4
RAAN
147.2598°
Arg perigee
92.4094°
Mean anomaly
267.7371°
Rev number
3,839

§ Raw data

STARLINK-364171 67533U 26014B   26261.92653408  .00012104  00000+0  37655-3 0  99972 67533  97.2854 147.2598 0001938  92.4094 267.7371 15.33451488 38394

JSON: /api/v1/satellites/67533 · /tle

For live sub-satellite position, see the globe view (requires WebGL).

§ Visibility from observer

Set your observer location to see the next 7 days of passes ≥ 10°. The values pass through the URL so the page stays shareable.

No JS? Fill the form by hand. The geolocation button needs JavaScript.